Location: Blankensee
(53.5126°N, 14.3055°E)
Time: 17:41:02
(UTC+00:00)

Cosmos 1943 - Pass Details

Date: 08 August 2020
Orbit: 834 x 849 km, 71.0° (Epoch: 19 September)

Event Time Altitude Azimuth Distance (km) Brightness Sun altitude
Rises 01:04:41 0° 328° (NNW) 3,396 6.7 -16.1°
Reaches altitude 10° 01:07:16 10° 335° (NNW) 2,458 6.1 -15.9°
Maximum altitude 01:12:39 44° 47° (NE) 1,142 4.4 -15.5°
Drops below altitude 10° 01:18:00 10° 119° (ESE) 2,448 5.6 -15.1°
Sets 01:20:33 0° 126° (SE) 3,380 6.3 -14.9°
